Soldotna, AK

11:40 AM AKDT on April 27, 2017 (GMT -0800)
Soldotna

Weather History for PASX - November, 2013

Change the Weather History Date:

Wednesday, November 27, 2013

  Actual Average Record
Temperature  
Mean Temperature 26 °F -  
Max Temperature 30 °F 27 °F 44 °F (1969)
Min Temperature 23 °F 12 °F -22 °F (1990)
Degree Days  
Heating Degree Days 38    
Moisture  
Dew Point 25 °F    
Average Humidity 93    
Maximum Humidity 100    
Minimum Humidity 69    
Precipitation  
Precipitation 0.01 in - - ()
Sea Level Pressure  
Sea Level Pressure 29.77 in    
Wind  
Wind Speed 0 mph (ENE)    
Max Wind Speed 9 mph    
Max Gust Speed -    
Visibility 8 miles    
Events      
Averages and records for this station are not official NWS values.
T = Trace of Precipitation, MM = Missing Value Source: NWS Daily Summary

Daily Weather History Graph

Daily Weather History Graph

Search for Another Location

Airport or City:

Trip Planner

Search our weather history database for the weather conditions in past years. The results will help you decide how hot, cold, wet, or windy it might be!

Date:

Astronomy

Nov. 27, 2013 Rise Set
Actual Time 9:35 AM AKST 4:07 PM AKST
Civil Twilight 8:41 AM AKST 5:02 PM AKST
Nautical Twilight 7:45 AM AKST 5:57 PM AKST
Astronomical Twilight 6:54 AM AKST 6:48 PM AKST
Moon 2:19 AM AKST 2:11 PM AKST
Length of Visible Light 8h 21m
Length of Day
6h 32m
Waning Crescent, 30% of the Moon is Illuminated
Nov 27
Waning Crescent
Dec 2
New
Dec 9
First Quarter
Dec 17
Full
Dec 25
Last Quarter

Hourly Weather History & Observations

Time (AKST) Temp. Windchill Dew Point Humidity Pressure Visibility Wind Dir Wind Speed Gust Speed Precip Events Conditions
12:16 AM 28.4 °F - 26.6 °F 93% 29.88 in 2.5 mi Calm Calm - N/A   Overcast
12:36 AM 28.4 °F - 26.6 °F 93% 29.88 in 3.0 mi Calm Calm - 0.01 in   Overcast
12:56 AM 28.4 °F - 26.6 °F 93% 29.88 in 3.0 mi Calm Calm - 0.01 in   Overcast
1:16 AM 28.4 °F - 26.6 °F 93% 29.88 in 2.5 mi Calm Calm - N/A   Overcast
1:36 AM 26.6 °F - 26.6 °F 100% 29.88 in 4.0 mi Calm Calm - N/A   Overcast
1:56 AM 28.4 °F - 26.6 °F 93% 29.87 in 3.0 mi Calm Calm - N/A   Overcast
2:16 AM 26.6 °F - 26.6 °F 100% 29.87 in 3.0 mi Calm Calm - N/A   Overcast
2:36 AM 26.6 °F - 26.6 °F 100% 29.87 in 2.5 mi Calm Calm - N/A   Mostly Cloudy
2:56 AM 26.6 °F - 24.8 °F 93% 29.86 in 3.0 mi Calm Calm - N/A   Overcast
3:16 AM 26.6 °F - 24.8 °F 93% 29.87 in 9.0 mi Calm Calm - N/A   Overcast
3:36 AM 26.6 °F - 24.8 °F 93% 29.86 in 6.0 mi Calm Calm - N/A   Overcast
3:56 AM 26.6 °F - 24.8 °F 93% 29.86 in 9.0 mi Calm Calm - N/A   Overcast
4:16 AM 26.6 °F - 24.8 °F 93% 29.85 in 6.0 mi Calm Calm - N/A   Overcast
4:36 AM 26.6 °F - 26.6 °F 100% 29.84 in 10.0 mi Calm Calm - N/A   Overcast
4:56 AM 26.6 °F - 24.8 °F 93% 29.85 in 10.0 mi Calm Calm - N/A   Overcast
5:16 AM 24.8 °F - 23.0 °F 93% 29.84 in 7.0 mi Calm Calm - N/A   Overcast
5:36 AM 24.8 °F - 23.0 °F 93% 29.84 in 9.0 mi Calm Calm - N/A   Overcast
5:56 AM 24.8 °F - 24.8 °F 100% 29.84 in 2.5 mi Calm Calm - N/A   Overcast
6:16 AM 23.0 °F - 21.2 °F 93% 29.84 in 10.0 mi Calm Calm - N/A   Overcast
6:36 AM 24.8 °F - 24.8 °F 100% 29.83 in 10.0 mi Calm Calm - N/A   Overcast
6:56 AM 24.8 °F - 23.0 °F 93% 29.83 in 10.0 mi Calm Calm - N/A   Overcast
7:16 AM 24.8 °F - 23.0 °F 93% 29.82 in 10.0 mi Calm Calm - N/A   Overcast
7:36 AM 26.6 °F - 24.8 °F 93% 29.82 in 10.0 mi Calm Calm - N/A   Overcast
7:56 AM 24.8 °F - 24.8 °F 100% 29.82 in 10.0 mi Calm Calm - N/A   Overcast
8:16 AM 26.6 °F - 24.8 °F 93% 29.82 in 10.0 mi Calm Calm - N/A   Overcast
8:36 AM 26.6 °F - 24.8 °F 93% 29.82 in 10.0 mi Calm Calm - N/A   Overcast
8:56 AM 26.6 °F - 24.8 °F 93% 29.82 in 10.0 mi Calm Calm - N/A   Overcast
9:16 AM 26.6 °F - 24.8 °F 93% 29.81 in 10.0 mi Calm Calm - N/A   Overcast
9:36 AM 26.6 °F - 24.8 °F 93% 29.80 in 10.0 mi Calm Calm - N/A   Overcast
9:56 AM 26.6 °F - 24.8 °F 93% 29.80 in 10.0 mi Calm Calm - N/A   Overcast
10:16 AM 26.6 °F - 24.8 °F 93% 29.80 in 10.0 mi Calm Calm - N/A   Overcast
10:36 AM 26.6 °F - 24.8 °F 93% 29.79 in 10.0 mi Calm Calm - N/A   Overcast
10:56 AM 26.6 °F - 24.8 °F 93% 29.79 in 10.0 mi Calm Calm - N/A   Overcast
11:16 AM 26.6 °F - 26.6 °F 100% 29.79 in 10.0 mi Calm Calm - N/A   Overcast
11:36 AM 26.6 °F - 24.8 °F 93% 29.78 in 10.0 mi Calm Calm - N/A   Overcast
11:56 AM 28.4 °F - 26.6 °F 93% 29.78 in 10.0 mi Calm Calm - N/A   Overcast
12:16 PM 28.4 °F - 26.6 °F 93% 29.77 in 10.0 mi Calm Calm - N/A   Overcast
12:36 PM 28.4 °F - 26.6 °F 93% 29.77 in 10.0 mi Calm Calm - N/A   Overcast
12:56 PM 28.4 °F - 26.6 °F 93% 29.76 in 10.0 mi Calm Calm - N/A   Overcast
1:16 PM 28.4 °F - 26.6 °F 93% 29.76 in 10.0 mi Calm Calm - N/A   Overcast
1:36 PM 28.4 °F - 26.6 °F 93% 29.76 in 10.0 mi Calm Calm - N/A   Overcast
1:56 PM 28.4 °F - 26.6 °F 93% 29.76 in 10.0 mi Calm Calm - N/A   Overcast
2:16 PM 28.4 °F - 26.6 °F 93% 29.75 in 10.0 mi Calm Calm - N/A   Overcast
2:36 PM 28.4 °F - 28.4 °F 100% 29.74 in 10.0 mi Calm Calm - N/A   Overcast
2:56 PM 28.4 °F - 26.6 °F 93% 29.73 in 10.0 mi Calm Calm - N/A   Overcast
3:16 PM 30.2 °F - 28.4 °F 93% 29.72 in 10.0 mi Calm Calm - N/A   Overcast
3:36 PM 30.2 °F - 28.4 °F 93% 29.71 in 10.0 mi Calm Calm - N/A   Mostly Cloudy
3:56 PM 28.4 °F - 28.4 °F 100% 29.71 in 10.0 mi Calm Calm - N/A   Overcast
4:16 PM 30.2 °F - 28.4 °F 93% 29.71 in 10.0 mi Calm Calm - N/A   Overcast
4:36 PM 28.4 °F - 28.4 °F 100% 29.70 in 10.0 mi Calm Calm - N/A   Overcast
4:56 PM 30.2 °F - 28.4 °F 93% 29.70 in 10.0 mi Calm Calm - N/A   Overcast
5:16 PM 30.2 °F - 28.4 °F 93% 29.69 in 10.0 mi Calm Calm - N/A   Overcast
5:36 PM 28.4 °F - 28.4 °F 100% 29.69 in 10.0 mi Calm Calm - N/A   Overcast
5:56 PM 28.4 °F - 26.6 °F 93% 29.68 in 10.0 mi Calm Calm - N/A   Overcast
6:16 PM 28.4 °F - 26.6 °F 93% 29.68 in 10.0 mi Calm Calm - N/A   Overcast
6:36 PM 28.4 °F - 26.6 °F 93% 29.68 in 10.0 mi Calm Calm - N/A   Overcast
6:56 PM 28.4 °F - 26.6 °F 93% 29.67 in 10.0 mi Calm Calm - N/A   Overcast
7:16 PM 28.4 °F - 28.4 °F 100% 29.68 in 10.0 mi Calm Calm - N/A   Overcast
7:36 PM 28.4 °F - 26.6 °F 93% 29.67 in 10.0 mi Calm Calm - N/A   Overcast
7:56 PM 28.4 °F - 28.4 °F 100% 29.67 in 10.0 mi Calm Calm - N/A   Overcast
8:16 PM 28.4 °F - 26.6 °F 93% 29.67 in 10.0 mi Calm Calm - N/A   Overcast
8:36 PM 28.4 °F 21.2 °F 28.4 °F 100% 29.68 in 1.8 mi North 6.9 mph - N/A   Overcast
8:56 PM 28.4 °F 23.3 °F 26.6 °F 93% 29.69 in 1.0 mi North 4.6 mph - N/A   Overcast
9:16 PM 28.4 °F - 24.8 °F 86% 29.69 in 5.0 mi Calm Calm - N/A   Overcast
9:36 PM 28.4 °F - 24.8 °F 86% 29.68 in 8.0 mi Calm Calm - N/A   Overcast
9:56 PM 28.4 °F - 24.8 °F 86% 29.70 in 8.0 mi Calm Calm - N/A   Overcast
10:16 PM 28.4 °F 22.2 °F 23.0 °F 80% 29.70 in 10.0 mi NE 5.8 mph - N/A   Overcast
10:36 PM 26.6 °F 18.2 °F 21.2 °F 80% 29.71 in 10.0 mi ENE 8.1 mph - N/A   Overcast
10:56 PM 26.6 °F 17.5 °F 19.4 °F 74% 29.71 in 10.0 mi East 9.2 mph - N/A   Overcast
11:16 PM 24.8 °F 16.9 °F 17.6 °F 74% 29.71 in 10.0 mi East 6.9 mph - N/A   Overcast
11:36 PM 24.8 °F 17.9 °F 15.8 °F 69% 29.72 in 10.0 mi ENE 5.8 mph - N/A   Mostly Cloudy
11:56 PM 23.0 °F 13.9 °F 15.8 °F 74% 29.72 in 10.0 mi East 8.1 mph - N/A   Clear